Regional Weather Roundup
Issued by NWS

Home | Current Version | Previous Version | Graphics & Text | Print | Product List | Glossary On
Versions: 1 2 3 4 5 6 7 8 9 10 11 12 13 14 15 16 17 18 19 20 21 22 23 24 25 26 27 28 29 30 31 32 33 34 35 36 37 38 39 40 41 42 43 44 45 46 47 48 49 50
000
ASUS43 KLSX 031307
RWRMO

WEATHER SUMMARY FOR MISSOURI
NATIONAL WEATHER SERVICE SPRINGFIELD MO
700 AM CST TUE MAR 03 2015

NOTE: "FAIR" INDICATES FEW OR NO CLOUDS BELOW 12,000 FEET WITH NO
       SIGNIFICANT WEATHER AND/OR OBSTRUCTIONS TO VISIBILITY.
       CURRENT SKY AND/OR WEATHER CONDITIONS ARE NOT AVAILABLE FOR
       CHILLICOTHE AND FARMINGTON.

MOZ001>031-035>038-043-044-053-054-031400-
...NORTHERN AND WESTERN MISSOURI...

CITY           SKY/WX    TMP DP  RH WIND       PRES   REMARKS
KANSAS CTY INT DRIZZLE   38  36  92 SW25G31   29.70F WCI  27
KANSAS C DTWN  CLOUDY    39  36  89 S14       29.73F FOG
LEE`S SUMMIT   CLOUDY    37  36  96 SW18G25   29.74S FOG     WCI  27
ST JOSEPH      CLOUDY    36  35  96 SW10      29.71F FOG     WCI  28
CHILLICOTHE      N/A     34  32  92 S10       29.75F WCI  26
KIRKSVILLE     CLOUDY    31  31 100 S8G17     29.74F FOG     WCI  23

$$
MOZ066>068-077>081-088>096-101>105-031400-
...SOUTHWEST MISSOURI...

CITY           SKY/WX    TMP DP  RH WIND       PRES   REMARKS
SPRINGFIELD    FOG       35  34  96 S16       29.87S VSB 1/2 WCI  25
JOPLIN         CLOUDY    40  38  93 S17       29.86F FOG

$$
MOZ032>034-039>042-045>050-055>058-069>072-031400-
...CENTRAL MISSOURI...

CITY           SKY/WX    TMP DP  RH WIND       PRES   REMARKS
COLUMBIA       CLOUDY    35  32  88 S15       29.80F WCI  25
JEFFERSON CITY CLOUDY    36  33  89 VRB3      29.84F
ROLLA          CLOUDY    34  33  96 S16       29.82F FOG     WCI  24
SEDALIA        CLOUDY    37  33  85 S17       29.77F WCI  27
WHITEMAN AFB   CLOUDY    36  34  94 S22       29.74F WCI  24
WARRENSBURG    CLOUDY    36  34  93 S16G22    29.75F FOG     WCI  26
OSAGE BEACH    CLOUDY    34  30  86 S13       29.82F WCI  25

$$
MOZ051-052-059>065-031400-
...EAST CENTRAL MISSOURI...

CITY           SKY/WX    TMP DP  RH WIND       PRES   REMARKS
ST LOUIS INTL  LGT RAIN  35  28  75 SE10      29.89F WCI  27
SPIRIT OF STL  MIX PCPN  32  30  92 CALM      29.88F FOG
ST CHARLES     CLOUDY    32  30  92 SE9       29.88F FOG     WCI  24

$$
MOZ072>076-082>087-097>100-106>115-031400-
...SOUTH CENTRAL AND SOUTHEAST MISSOURI...

CITY           SKY/WX    TMP DP  RH WIND       PRES   REMARKS
CAPE GIRARDEAU CLOUDY    35  32  88 S3        30.02S
FARMINGTON     CLOUDY    34  30  86 S14       29.95F WCI  24
POPLAR BLUFF   CLOUDY    33  29  85 S6        30.02F WCI  28
WEST PLAINS    FOG       33  31  92 S8        29.94F VSB 1/2 WCI  26

$$


USA.gov is the U.S. government's official web portal to all federal, state and local government web resources and services.